[[{"header":{"parameterUnit":"m.s-1","parameterCategory":1,"la1":30.2991,"la2":30.254,"lo1":-89.0895,"lo2":-89.0444,"dy":0.0017,"dx":0.0017,"nx":28,"ny":28,"refTime":"2024-12-04T09:00:00:Z","depth":0,"parameterNumber":2,"parameterNumberName":"U-component_of_WINDS"},"data":[0,0,0,0,0,0,0,0,0,0,0,0,0,0,0,0,0,0,0,0,0,0,0,0,0,0,0,0,0,0,0,0,0,0,0,0,0,0,0,0,0,0,0,0,0,0,0,0,0,0,0,0,0,0,0,0,0,0,0.2052,0.2052,0,0.2022,0.2022,0.2022,0.2026,0.2027,0.2027,0.2028,0.1995,0.1994,0.1993,0,0,0,0,0,0,0,0,0,0,0,0,0,0.2112,0.2111,0.2052,0.2052,0.2051,0.2022,0.2022,0.2022,0.2026,0.2027,0.2027,0.2028,0.1996,0.1994,0.1993,0,0,0,0,0,0,0,0,0,0,0,0,0,0.2085,0.2111,0.2052,0.205,0.205,0.2022,0.2022,0.2021,0.2026,0.2027,0.2027,0.2028,0.1996,0.1994,0.1992,0.1965,0,0,0.1986,0.1985,0,0,0,0,0,0,0,0,0.2086,0.2082,0.2051,0.205,0.205,0.2029,0.2031,0.2002,0.2026,0.2035,0.2028,0.2029,0.2006,0.2003,0.1996,0.1963,0.1962,0.1986,0.1985,0.1984,0.1984,0,0,0,0,0,0,0,0.2088,0.2084,0.204,0.205,0.205,0.2051,0.2047,0.2026,0.2016,0.2034,0.2034,0.2031,0.2006,0.1998,0.1995,0.1961,0.1986,0.1984,0.1983,0.1982,0.1905,0.1905,0,0,0,0,0,0,0.2091,0.2085,0.2041,0.2039,0.207,0.2049,0.2045,0.2035,0.2017,0.2015,0.203,0.2031,0.2001,0.1997,0.1994,0.196,0.1984,0.1982,0.1981,0.1906,0.1905,0.1904,0,0,0,0,0,0,0.2092,0.2087,0.2042,0.2062,0.2057,0.2047,0.2035,0.2034,0.2026,0.2014,0.2012,0.2024,0.2001,0.1997,0.1972,0.1959,0.1981,0.198,0.1907,0.1906,0.1905,0.1893,0,0,0,0,0,0,0.2094,0.2087,0.2076,0.2062,0.2056,0.2021,0.2034,0.2033,0.2022,0.2023,0.2007,0.2005,0.2001,0.1975,0.197,0.1957,0.1978,0.1908,0.1907,0.1905,0.1894,0.1891,0.1889,0,0,0,0,0,0.2096,0.2074,0.2076,0.207,0.2042,0.202,0.2017,0.2013,0.2021,0.201,0.2003,0.2006,0.1962,0.1973,0.1967,0.1953,0.1909,0.1907,0.1905,0.1895,0.1892,0.1889,0,0,0,0,0,0,0.2086,0.2072,0.2074,0.2047,0.2035,0.2021,0.2007,0.2009,0.1994,0.1996,0.1992,0.1988,0.1963,0.1956,0.1968,0.1926,0.1937,0.1934,0.1931,0.1927,0.1925,0.1926,0.1976,0,0,0,0,0,0.208,0.2064,0.2053,0.203,0.2024,0.2017,0.2007,0.2006,0.1993,0.1988,0.1979,0.1966,0.1949,0.1938,0.1922,0.1894,0.189,0.1882,0.1879,0.1877,0.1873,0.1858,0.1854,0.1898,0.1898,0.1898,0,0,0.2069,0.2059,0.2049,0.2028,0.2018,0.2001,0.2012,0.1994,0.1981,0.1985,0.1961,0.1954,0.194,0.1913,0.1901,0.1906,0.1861,0.1874,0.1872,0.187,0.1856,0.1851,0.1848,0.1897,0.1897,0.1897,0,0,0.2039,0.2031,0.2011,0.2001,0.1988,0.1983,0.1979,0.1965,0.1961,0.1938,0.194,0.1925,0.1897,0.1886,0.1877,0.1846,0.1848,0.1841,0.1826,0.1811,0.1808,0.1804,0.1793,0.1789,0.1839,0.1839,0.1838,0,0.2026,0.2001,0.2,0.1981,0.1972,0.1976,0.1955,0.1947,0.1928,0.1921,0.1928,0.1893,0.1883,0.1855,0.1847,0.184,0.1834,0.1842,0.1808,0.1805,0.1802,0.1791,0.1787,0.1838,0.1838,0.1838,0.1838,0,0.1986,0.1969,0.1954,0.1937,0.1926,0.1907,0.1902,0.1892,0.1892,0.1887,0.1863,0.1853,0.1835,0.1829,0.1828,0.18,0.1804,0.1809,0.182,0.1797,0.1786,0.1782,0.1837,0.1837,0.1837,0.1837,0,0,0.1946,0.1931,0.1925,0.1918,0.1904,0.189,0.1872,0.1855,0.1846,0.1834,0.1817,0.1794,0.18,0.179,0.1789,0.1776,0.1751,0.1783,0.1783,0.1777,0.172,0.1714,0.1709,0.1754,0.1753,0.1752,0.1721,0,0.1915,0.1882,0.1881,0.1851,0.1835,0.1839,0.1823,0.1813,0.1809,0.1794,0.1789,0.1773,0.1782,0.1776,0.1763,0.1757,0.174,0.176,0.1738,0.1737,0.174,0.1704,0.1698,0.1668,0.1716,0.1716,0.1715,0,0.1872,0.186,0.1828,0.1818,0.1811,0.1796,0.1781,0.1768,0.1757,0.1755,0.1744,0.1746,0.1727,0.174,0.1713,0.1727,0.1718,0.1714,0.1713,0.1709,0.1723,0.1698,0.1659,0.1654,0.1709,0.1709,0.171,0,0.1846,0.1821,0.1799,0.1793,0.178,0.177,0.1764,0.1754,0.1744,0.1731,0.1725,0.171,0.1702,0.169,0.1688,0.1697,0.1661,0.1674,0.1658,0.1658,0.1648,0.1649,0.1606,0.1645,0.1646,0.1646,0.1646,0,0.1809,0.1789,0.1787,0.1773,0.1751,0.1751,0.173,0.1725,0.1716,0.1701,0.1705,0.1691,0.1689,0.1675,0.1673,0.1651,0.1647,0.1645,0.1644,0.1643,0.1644,0.1636,0.1638,0.1644,0.1645,0.1645,0.1645,0,0.1775,0.1773,0.1749,0.1739,0.1737,0.1721,0.1713,0.17,0.1697,0.1678,0.1674,0.1669,0.1652,0.1649,0.1629,0.1628,0.1602,0.1604,0.1606,0.1605,0.1589,0.159,0.1539,0.1532,0.1578,0.1577,0.1577,0,0.1751,0.1736,0.1725,0.1716,0.171,0.1695,0.1686,0.1686,0.1676,0.1663,0.1652,0.1636,0.1623,0.1597,0.1591,0.1576,0.1577,0.156,0.1575,0.1575,0.1576,0.1576,0.1574,0.1557,0.1556,0.1556,0.1556,0,0.1708,0.1708,0.1695,0.1682,0.1671,0.166,0.165,0.1642,0.1641,0.163,0.1613,0.1603,0.1584,0.1568,0.1554,0.1548,0.1551,0.1552,0.1547,0.1545,0.1546,0.1545,0.1597,0.1552,0.1553,0.1553,0.1553,0.1553,0.1677,0.1665,0.1656,0.1641,0.1634,0.1624,0.1612,0.1608,0.1595,0.1579,0.158,0.1562,0.1553,0.1534,0.1527,0.1513,0.1518,0.1512,0.151,0.1508,0.1506,0.155,0.1511,0.1511,0.1511,0.1511,0.1511,0,0.1634,0.1629,0.1616,0.1602,0.1591,0.1597,0.1586,0.1576,0.156,0.1552,0.1539,0.1521,0.1506,0.15,0.1486,0.1476,0.1477,0.1472,0.1472,0.147,0.1503,0.1507,0.1471,0.1471,0.1471,0.1471,0.1471,0.1471,0.161,0.1589,0.1588,0.1563,0.1558,0.1541,0.1535,0.1526,0.1519,0.1499,0.1487,0.1484,0.1476,0.1462,0.1448,0.1447,0.1441,0.1435,0.1434,0.1464,0.1468,0.1472,0.1476,0.1434,0.1434,0.1403,0.1402,0.1402]},{"header":{"parameterUnit":"m.s-1","parameterCategory":1,"la1":30.2991,"la2":30.254,"lo1":-89.0895,"lo2":-89.0444,"dy":0.0017,"dx":0.0017,"nx":28,"ny":28,"refTime":"2024-12-04T09:00:00:Z","depth":0,"parameterNumber":3,"parameterNumberName":"V-component_of_WINDS"},"data":[0,0,0,0,0,0,0,0,0,0,0,0,0,0,0,0,0,0,0,0,0,0,0,0,0,0,0,0,0,0,0,0,0,0,0,0,0,0,0,0,0,0,0,0,0,0,0,0,0,0,0,0,0,0,0,0,0,0,-6.6971,-6.6972,0,-6.7069,-6.707,-6.7071,-6.7023,-6.7021,-6.7018,-6.7016,-6.7109,-6.7113,-6.7118,0,0,0,0,0,0,0,0,0,0,0,0,0,-6.6738,-6.6743,-6.6971,-6.6973,-6.6974,-6.7069,-6.707,-6.7071,-6.7024,-6.7021,-6.7018,-6.7015,-6.7107,-6.7113,-6.7118,0,0,0,0,0,0,0,0,0,0,0,0,0,-6.6838,-6.6744,-6.6971,-6.6962,-6.6962,-6.7068,-6.707,-6.7072,-6.7025,-6.7021,-6.7017,-6.7014,-6.7105,-6.7112,-6.7119,-6.7238,0,0,-6.7141,-6.7144,0,0,0,0,0,0,0,0,-6.6832,-6.6846,-6.6962,-6.6963,-6.6963,-6.703,-6.7022,-6.7127,-6.7025,-6.7001,-6.7016,-6.7012,-6.7085,-6.7094,-6.712,-6.7242,-6.7246,-6.7142,-6.7146,-6.7149,-6.7151,0,0,0,0,0,0,0,-6.6825,-6.6842,-6.701,-6.6964,-6.6964,-6.6951,-6.6961,-6.7041,-6.7062,-6.7002,-6.6999,-6.7012,-6.7085,-6.7113,-6.7122,-6.7248,-6.7141,-6.7148,-6.7152,-6.7155,-6.7473,-6.7477,0,0,0,0,0,0,-6.682,-6.6836,-6.7006,-6.7013,-6.6887,-6.6958,-6.6969,-6.7012,-6.7061,-6.7065,-6.7015,-6.7009,-6.7103,-6.7113,-6.7125,-6.7268,-6.7149,-6.7156,-6.716,-6.7469,-6.7474,-6.7479,0,0,0,0,0,0,-6.6815,-6.6835,-6.7003,-6.6924,-6.6944,-6.6966,-6.7015,-6.7016,-6.7045,-6.7071,-6.7074,-6.7041,-6.71,-6.7115,-6.7211,-6.727,-6.7159,-6.7166,-6.7464,-6.7471,-6.7477,-6.7555,0,0,0,0,0,0,-6.6808,-6.6834,-6.6881,-6.6925,-6.6949,-6.7089,-6.7019,-6.7021,-6.7058,-6.7052,-6.7096,-6.7099,-6.7098,-6.7201,-6.7218,-6.7278,-6.7171,-6.7459,-6.7467,-6.7475,-6.7547,-6.7563,-6.7577,0,0,0,0,0,-6.68,-6.6897,-6.6883,-6.6904,-6.7008,-6.7093,-6.7106,-6.7105,-6.7063,-6.7109,-6.7126,-6.7098,-6.7261,-6.7211,-6.723,-6.7293,-6.7455,-6.7465,-6.7474,-6.7541,-6.756,-6.7577,0,0,0,0,0,0,-6.6856,-6.6903,-6.6888,-6.7002,-6.7045,-6.7085,-6.7143,-6.7125,-6.7178,-6.7169,-6.7163,-6.7174,-6.7274,-6.7293,-6.7236,-6.7411,-6.7352,-6.7365,-6.7396,-6.7414,-6.7429,-6.7422,-6.7177,0,0,0,0,0,-6.6882,-6.6949,-6.6986,-6.7083,-6.7105,-6.7121,-6.7158,-6.7154,-6.7196,-6.7212,-6.7236,-6.7276,-6.7337,-6.7376,-6.7433,-6.755,-6.7559,-6.7603,-6.7618,-6.763,-6.7641,-6.7705,-6.7725,-6.751,-6.751,-6.7509,0,0,-6.6935,-6.6969,-6.7011,-6.7095,-6.7127,-6.7195,-6.7136,-6.721,-6.726,-6.7223,-6.7316,-6.7335,-6.7379,-6.7487,-6.7535,-6.7506,-6.7703,-6.7642,-6.7651,-6.7656,-6.7717,-6.7737,-6.7755,-6.7516,-6.7515,-6.7514,0,0,-6.7068,-6.7101,-6.7186,-6.722,-6.7271,-6.7281,-6.7302,-6.7345,-6.7358,-6.7452,-6.7426,-6.7484,-6.7588,-6.7621,-6.7651,-6.7799,-6.7775,-6.7817,-6.7894,-6.7957,-6.7974,-6.7989,-6.8042,-6.8061,-6.7829,-6.7829,-6.7829,0,-6.7127,-6.7231,-6.7231,-6.7309,-6.7346,-6.7319,-6.7405,-6.7437,-6.7502,-6.7528,-6.7495,-6.7626,-6.7653,-6.7769,-6.7805,-6.783,-6.7853,-6.7812,-6.7972,-6.7987,-6.8001,-6.8051,-6.8071,-6.7834,-6.7833,-6.7833,-6.7833,0,-6.7302,-6.7375,-6.7437,-6.7505,-6.7549,-6.763,-6.7641,-6.7685,-6.7678,-6.7691,-6.7787,-6.782,-6.7884,-6.7911,-6.7902,-6.8025,-6.8006,-6.7972,-6.7912,-6.8026,-6.8073,-6.8093,-6.7841,-6.7839,-6.7838,-6.7837,0,0,-6.7471,-6.754,-6.7563,-6.7594,-6.7648,-6.7703,-6.7783,-6.7848,-6.7886,-6.7932,-6.7998,-6.8088,-6.8059,-6.8093,-6.8088,-6.8143,-6.8259,-6.8103,-6.8104,-6.8131,-6.8396,-6.8421,-6.8443,-6.8243,-6.8247,-6.825,-6.8392,0,-6.7608,-6.775,-6.7754,-6.7883,-6.795,-6.7926,-6.7995,-6.8035,-6.805,-6.8107,-6.8122,-6.8187,-6.8142,-6.8163,-6.8216,-6.8233,-6.8312,-6.8223,-6.8303,-6.8306,-6.8293,-6.8468,-6.8494,-6.8627,-6.8411,-6.8414,-6.8416,0,-6.7786,-6.7842,-6.798,-6.8026,-6.8054,-6.8117,-6.8178,-6.8233,-6.8278,-6.8285,-6.8325,-6.8313,-6.8392,-6.833,-6.8439,-6.8379,-6.8412,-6.8425,-6.843,-6.8438,-6.8368,-6.848,-6.8669,-6.869,-6.8445,-6.8443,-6.8441,0,-6.7896,-6.8005,-6.8102,-6.8129,-6.8186,-6.8231,-6.8256,-6.8297,-6.8337,-6.8389,-6.8414,-6.8474,-6.8506,-6.8552,-6.8556,-6.851,-6.8666,-6.8604,-6.8673,-6.8673,-6.8706,-6.8704,-6.8904,-6.8727,-6.8727,-6.8727,-6.8726,0,-6.8049,-6.8134,-6.8153,-6.8212,-6.8307,-6.8309,-6.8402,-6.8423,-6.846,-6.8522,-6.8503,-6.8561,-6.8563,-6.8622,-6.8625,-6.8715,-6.8729,-6.8736,-6.8736,-6.8738,-6.8737,-6.8759,-6.875,-6.8732,-6.8731,-6.873,-6.8729,0,-6.8188,-6.8204,-6.8308,-6.8354,-6.8368,-6.8436,-6.8474,-6.853,-6.8544,-6.8622,-6.8641,-6.8661,-6.873,-6.8739,-6.8817,-6.8819,-6.8928,-6.8918,-6.8914,-6.8913,-6.8982,-6.8975,-6.9203,-6.9233,-6.9036,-6.9038,-6.904,0,-6.8284,-6.835,-6.8404,-6.8446,-6.8475,-6.8541,-6.8583,-6.8587,-6.863,-6.8687,-6.8736,-6.8804,-6.8858,-6.8968,-6.8989,-6.9049,-6.904,-6.9116,-6.9049,-6.9049,-6.9042,-6.9038,-6.9045,-6.9128,-6.9131,-6.9132,-6.9134,0,-6.8454,-6.8459,-6.8521,-6.8586,-6.8637,-6.8687,-6.8735,-6.8769,-6.878,-6.8829,-6.8901,-6.8943,-6.9025,-6.9092,-6.9152,-6.9175,-6.9157,-6.9155,-6.9174,-6.9177,-6.9173,-6.9177,-6.895,-6.9149,-6.9148,-6.9147,-6.9146,-6.9145,-6.8574,-6.8632,-6.8681,-6.875,-6.8787,-6.8833,-6.8888,-6.8911,-6.8971,-6.9041,-6.9039,-6.9118,-6.9161,-6.924,-6.9268,-6.9328,-6.9303,-6.9331,-6.9338,-6.9345,-6.9352,-6.9164,-6.9339,-6.9338,-6.9338,-6.9338,-6.9337,0,-6.8743,-6.8774,-6.8838,-6.8907,-6.8962,-6.8943,-6.8995,-6.9041,-6.9112,-6.9155,-6.921,-6.9292,-6.9357,-6.9384,-6.9447,-6.949,-6.9483,-6.9507,-6.9504,-6.951,-6.9371,-6.9348,-6.9512,-6.9512,-6.9512,-6.9512,-6.9512,-6.9512,-6.8838,-6.8935,-6.8947,-6.9062,-6.9091,-6.9171,-6.9202,-6.9243,-6.9278,-6.9373,-6.9428,-6.9446,-6.9482,-6.9549,-6.9607,-6.9613,-6.9637,-6.9665,-6.9667,-6.9537,-6.9519,-6.9502,-6.9481,-6.967,-6.967,-6.9801,-6.9802,-6.9803]}]]